sat.trackr.live / text

‹ back to catalog

STARLINK-3508

NORAD 51862 · 2022-022L

PAYLOAD ACTIVE UNKNOWN

§ Identity

Operator
Country
US
Launch date
2022-03-03
Launch site
AFETR
Launch vehicle
Mass (kg)
RCS (m²)

Purposes: comms

External: N2YO · Heavens-Above · Gunter

§ Orbital elements

Epoch: 2026-09-20T03:24:28.842336Z

Period
93.85 min
Inclination
53.1603°
Eccentricity
0.0001268
Mean motion
15.34388526 rev/d
Perigee alt
461.9 km
Apogee alt
463.6 km
Semi-major
6,840.9 km
B*
1.9396e-5
RAAN
205.0408°
Arg perigee
87.8789°
Mean anomaly
272.2359°
Rev number
25,267

§ Raw data

STARLINK-35081 51862U 22022L   26263.14200049  .00000279  00000+0  19396-4 0  99982 51862  53.1603 205.0408 0001268  87.8789 272.2359 15.34388526252672

JSON: /api/v1/satellites/51862 · /tle

For live sub-satellite position, see the globe view (requires WebGL).

§ Visibility from observer

Set your observer location to see the next 7 days of passes ≥ 10°. The values pass through the URL so the page stays shareable.

No JS? Fill the form by hand. The geolocation button needs JavaScript.